Tracking 27419 objects as of 9-Jun-2023
HD Live streaming from Space Station
objects crossing your sky now

THOR ABLESTAR DEB

Track THOR ABLESTAR DEB now!
10-day predictions


NORAD ID: 3164
Int'l Code: 1961-015HZ
Perigee: 866.9 km
Apogee: 928.6 km
Inclination: 66.7 °
Period: 102.8 minutes
Semi major axis: 7268 km
RCS: 0.0289 m2 (small)
Launch date: June 29, 1961
Source: United States (US)
Launch site: AIR FORCE EASTERN TEST RANGE (AFETR)

Note: This is SATELLITE DEBRIS
Your satellite tracking list
Your tracking list is empty




NASA's NSSDC Master Catalog

Two Line Element Set (TLE):
1 03164U 61015HZ  23159.53025288  .00000906  00000-0  65250-3 0  9996
2 03164  66.7490 327.1200 0042495 105.0374 255.5418 14.00918125932877
Source of the keplerian elements: AFSPC